Time,TemperatureF,DewpointF,PressureIn,WindDirection,WindDirectionDegrees,WindSpeedMPH,WindSpeedGustMPH,Humidity,HourlyPrecipIn,Conditions,Clouds,dailyrainin,SoftwareType,DateUTC
2013-05-07 00:03:00,65.0,63.0,29.92,SW,235,4.0,8.0,94,0.03,,,0.40,,2013-05-07 04:03:00,
2013-05-07 00:12:00,65.0,63.0,29.92,SW,235,4.0,8.0,94,0.03,,,0.40,,2013-05-07 04:12:00,
2013-05-07 00:23:00,64.0,63.0,29.91,SW,236,3.0,7.0,95,0.03,,,0.40,,2013-05-07 04:23:00,
2013-05-07 00:33:00,64.0,63.0,29.91,WSW,256,1.0,2.0,95,0.03,,,0.40,,2013-05-07 04:33:00,
2013-05-07 00:42:00,64.0,63.0,29.91,WSW,256,1.0,2.0,95,0.03,,,0.40,,2013-05-07 04:42:00,
2013-05-07 00:53:00,63.0,62.0,29.91,West,262,0.0,1.0,96,0.01,,,0.40,,2013-05-07 04:53:00,
2013-05-07 01:02:00,63.0,62.0,29.91,West,270,0.0,1.0,96,0.00,,,0.40,,2013-05-07 05:02:00,
2013-05-07 01:12:00,63.0,62.0,29.91,West,270,0.0,1.0,96,0.00,,,0.40,,2013-05-07 05:12:00,
2013-05-07 01:22:00,63.0,62.0,29.90,West,273,0.0,1.0,96,0.00,,,0.40,,2013-05-07 05:22:00,
2013-05-07 01:32:00,62.0,61.0,29.90,West,269,0.0,2.0,97,0.00,,,0.40,,2013-05-07 05:32:00,
2013-05-07 01:42:00,62.0,61.0,29.90,West,269,0.0,2.0,97,0.00,,,0.40,,2013-05-07 05:42:00,
2013-05-07 01:52:00,61.0,60.0,29.90,NW,315,0.0,1.0,97,0.00,,,0.40,,2013-05-07 05:52:00,
2013-05-07 02:02:00,61.0,60.0,29.89,North,8,0.0,1.0,97,0.00,,,0.40,,2013-05-07 06:02:00,
2013-05-07 02:12:00,61.0,60.0,29.89,North,8,0.0,1.0,97,0.00,,,0.40,,2013-05-07 06:12:00,
2013-05-07 02:22:00,60.0,59.0,29.89,North,8,0.0,0.0,97,0.00,,,0.40,,2013-05-07 06:22:00,
2013-05-07 02:32:00,60.0,59.0,29.89,North,8,0.0,0.0,97,0.00,,,0.40,,2013-05-07 06:32:00,
2013-05-07 02:42:00,60.0,59.0,29.89,North,8,0.0,0.0,97,0.00,,,0.40,,2013-05-07 06:42:00,
2013-05-07 02:52:00,60.0,59.0,29.89,NNW,329,0.0,0.0,97,0.00,,,0.40,,2013-05-07 06:52:00,
2013-05-07 03:02:00,60.0,59.0,29.88,NNW,329,0.0,1.0,97,0.00,,,0.40,,2013-05-07 07:02:00,
2013-05-07 03:11:00,60.0,59.0,29.88,NNW,329,0.0,1.0,97,0.00,,,0.40,,2013-05-07 07:11:00,
2013-05-07 03:22:00,59.0,58.0,29.88,NNW,328,0.0,0.0,97,0.00,,,0.39,,2013-05-07 07:22:00,
2013-05-07 03:32:00,59.0,58.0,29.88,NW,323,0.0,1.0,97,0.00,,,0.39,,2013-05-07 07:32:00,
2013-05-07 03:42:00,59.0,58.0,29.88,NW,323,0.0,1.0,97,0.00,,,0.39,,2013-05-07 07:42:00,
2013-05-07 03:52:00,59.0,58.0,29.88,NW,323,0.0,0.0,97,0.00,,,0.39,,2013-05-07 07:52:00,
2013-05-07 04:02:00,58.0,57.0,29.88,NW,323,0.0,0.0,98,0.00,,,0.39,,2013-05-07 08:02:00,
2013-05-07 04:11:00,58.0,57.0,29.88,NW,323,0.0,0.0,98,0.00,,,0.39,,2013-05-07 08:11:00,
2013-05-07 04:22:00,58.0,57.0,29.88,NW,323,0.0,0.0,98,0.00,,,0.39,,2013-05-07 08:22:00,
2013-05-07 04:32:00,58.0,57.0,29.88,NW,323,0.0,0.0,98,0.00,,,0.39,,2013-05-07 08:32:00,
2013-05-07 04:42:00,58.0,57.0,29.88,NW,323,0.0,0.0,98,0.00,,,0.39,,2013-05-07 08:42:00,
2013-05-07 04:52:00,58.0,57.0,29.89,NW,323,0.0,0.0,98,0.00,,,0.39,,2013-05-07 08:52:00,
2013-05-07 05:01:00,58.0,57.0,29.89,NW,323,0.0,0.0,98,0.00,,,0.39,,2013-05-07 09:01:00,
2013-05-07 05:11:00,58.0,57.0,29.89,NW,323,0.0,0.0,98,0.00,,,0.39,,2013-05-07 09:11:00,
2013-05-07 05:22:00,58.0,57.0,29.89,NW,323,0.0,0.0,98,0.00,,,0.39,,2013-05-07 09:22:00,
2013-05-07 05:33:00,58.0,57.0,29.89,NW,323,0.0,0.0,98,0.00,,,0.39,,2013-05-07 09:33:00,
2013-05-07 05:43:00,58.0,57.0,29.89,NW,323,0.0,0.0,98,0.00,,,0.39,,2013-05-07 09:43:00,
2013-05-07 05:52:00,58.0,57.0,29.89,NNW,332,0.0,1.0,98,0.00,,,0.39,,2013-05-07 09:52:00,
2013-05-07 06:03:00,58.0,57.0,29.89,NNW,332,0.0,0.0,98,0.00,,,0.39,,2013-05-07 10:03:00,
2013-05-07 06:12:00,58.0,57.0,29.89,NNW,332,0.0,0.0,98,0.00,,,0.39,,2013-05-07 10:12:00,
2013-05-07 06:23:00,57.0,56.0,29.89,NNW,330,0.0,3.0,98,0.00,,,0.39,,2013-05-07 10:23:00,
2013-05-07 06:32:00,57.0,56.0,29.90,NW,323,0.0,0.0,98,0.00,,,0.39,,2013-05-07 10:32:00,
2013-05-07 06:42:00,57.0,56.0,29.91,NW,323,0.0,0.0,98,0.00,,,0.39,,2013-05-07 10:42:00,
2013-05-07 06:52:00,57.0,56.0,29.91,NW,323,0.0,0.0,98,0.00,,,0.39,,2013-05-07 10:52:00,
2013-05-07 07:02:00,57.0,56.0,29.91,NW,323,0.0,0.0,98,0.00,,,0.39,,2013-05-07 11:02:00,
2013-05-07 07:12:00,57.0,56.0,29.91,NW,323,0.0,0.0,98,0.00,,,0.39,,2013-05-07 11:12:00,
2013-05-07 07:22:00,58.0,57.0,29.92,West,269,0.0,0.0,98,0.00,,,0.39,,2013-05-07 11:22:00,
2013-05-07 07:32:00,59.0,59.0,29.92,West,271,0.0,0.0,99,0.00,,,0.39,,2013-05-07 11:32:00,
2013-05-07 07:42:00,59.0,59.0,29.92,West,271,0.0,0.0,99,0.00,,,0.39,,2013-05-07 11:42:00,
2013-05-07 07:52:00,61.0,61.0,29.92,East,82,3.0,5.0,99,0.00,,,0.39,,2013-05-07 11:52:00,
2013-05-07 08:02:00,61.0,60.0,29.92,ESE,122,4.0,6.0,98,0.00,,,0.39,,2013-05-07 12:02:00,
2013-05-07 08:11:00,61.0,60.0,29.92,ESE,122,4.0,6.0,98,0.00,,,0.39,,2013-05-07 12:11:00,
2013-05-07 08:22:00,62.0,61.0,29.92,SE,131,5.0,7.0,96,0.00,,,0.39,,2013-05-07 12:22:00,
2013-05-07 08:32:00,62.0,61.0,29.92,SE,130,3.0,6.0,95,0.00,,,0.39,,2013-05-07 12:32:00,
2013-05-07 08:42:00,62.0,61.0,29.92,SE,130,3.0,6.0,95,0.00,,,0.39,,2013-05-07 12:42:00,
2013-05-07 08:52:00,63.0,60.0,29.93,SE,146,5.0,8.0,91,0.00,,,0.39,,2013-05-07 12:52:00,
2013-05-07 09:02:00,64.0,61.0,29.94,South,188,5.0,8.0,89,0.00,,,0.39,,2013-05-07 13:02:00,
2013-05-07 09:11:00,64.0,61.0,29.94,South,188,5.0,8.0,89,0.00,,,0.39,,2013-05-07 13:11:00,
2013-05-07 09:22:00,64.0,60.0,29.94,South,174,5.0,7.0,88,0.00,,,0.39,,2013-05-07 13:22:00,
2013-05-07 09:32:00,64.0,60.0,29.94,SSW,207,6.0,8.0,87,0.00,,,0.39,,2013-05-07 13:32:00,
2013-05-07 09:42:00,64.0,60.0,29.94,SSW,207,6.0,8.0,87,0.00,,,0.39,,2013-05-07 13:42:00,
2013-05-07 09:52:00,64.0,60.0,29.94,SSW,207,6.0,8.0,86,0.00,,,0.39,,2013-05-07 13:52:00,
2013-05-07 10:02:00,64.0,60.0,29.95,SSW,195,5.0,7.0,87,0.00,,,0.39,,2013-05-07 14:02:00,
2013-05-07 10:11:00,64.0,60.0,29.95,SSW,195,5.0,7.0,87,0.00,,,0.39,,2013-05-07 14:11:00,
2013-05-07 10:21:00,65.0,61.0,29.95,SSW,198,5.0,8.0,87,0.00,,,0.39,,2013-05-07 14:21:00,
2013-05-07 10:32:00,66.0,61.0,29.95,SSE,167,3.0,5.0,85,0.00,,,0.39,,2013-05-07 14:32:00,
2013-05-07 10:42:00,66.0,61.0,29.95,SSE,167,3.0,5.0,85,0.00,,,0.39,,2013-05-07 14:42:00,
2013-05-07 10:52:00,67.0,62.0,29.94,SSE,166,0.0,3.0,83,0.00,,,0.39,,2013-05-07 14:52:00,
2013-05-07 11:01:00,68.0,62.0,29.95,SE,131,1.0,3.0,80,0.00,,,0.39,,2013-05-07 15:01:00,
2013-05-07 11:12:00,68.0,62.0,29.95,SE,131,1.0,3.0,80,0.00,,,0.39,,2013-05-07 15:12:00,
2013-05-07 11:21:00,67.0,60.0,29.95,SE,131,0.0,2.0,79,0.00,,,0.34,,2013-05-07 15:21:00,
2013-05-07 11:33:00,68.0,61.0,29.95,ESE,110,0.0,2.0,78,0.00,,,0.34,,2013-05-07 15:33:00,
2013-05-07 11:42:00,68.0,61.0,29.95,ESE,110,0.0,2.0,78,0.00,,,0.34,,2013-05-07 15:42:00,
2013-05-07 11:53:00,68.0,61.0,29.95,ESE,110,0.0,2.0,78,0.00,,,0.34,,2013-05-07 15:53:00,
2013-05-07 12:03:00,69.0,61.0,29.95,East,90,2.0,3.0,76,0.00,,,0.34,,2013-05-07 16:03:00,
2013-05-07 12:12:00,69.0,61.0,29.95,East,90,2.0,3.0,76,0.00,,,0.34,,2013-05-07 16:12:00,
2013-05-07 12:22:00,70.0,60.0,29.95,South,180,8.0,11.0,70,0.00,,,0.34,,2013-05-07 16:22:00,
2013-05-07 12:32:00,70.0,61.0,29.94,SSE,166,6.0,10.0,73,0.00,,,0.34,,2013-05-07 16:32:00,
2013-05-07 12:42:00,70.0,61.0,29.94,SSE,166,6.0,10.0,73,0.00,,,0.34,,2013-05-07 16:42:00,
2013-05-07 12:51:00,70.0,61.0,29.94,SSE,166,6.0,10.0,73,0.00,,,0.34,,2013-05-07 16:51:00,
2013-05-07 13:01:00,70.0,58.0,29.93,SSW,210,7.0,9.0,65,0.00,,,0.34,,2013-05-07 17:01:00,
2013-05-07 13:12:00,70.0,58.0,29.93,SSW,210,7.0,9.0,65,0.00,,,0.34,,2013-05-07 17:12:00,
2013-05-07 13:21:00,70.0,59.0,29.93,SSW,194,7.0,12.0,69,0.00,,,0.34,,2013-05-07 17:21:00,
2013-05-07 13:32:00,70.0,58.0,29.93,SSW,209,9.0,12.0,65,0.00,,,0.34,,2013-05-07 17:32:00,
2013-05-07 13:41:00,70.0,58.0,29.93,SSW,209,9.0,12.0,65,0.00,,,0.34,,2013-05-07 17:41:00,
2013-05-07 13:52:00,70.0,58.0,29.93,SSW,209,9.0,12.0,65,0.00,,,0.34,,2013-05-07 17:52:00,
2013-05-07 14:01:00,70.0,58.0,29.92,SSW,208,13.0,17.0,65,0.00,,,0.34,,2013-05-07 18:01:00,
2013-05-07 14:11:00,70.0,58.0,29.92,SSW,208,13.0,17.0,65,0.00,,,0.34,,2013-05-07 18:11:00,
2013-05-07 14:21:00,69.0,57.0,29.92,SSW,195,11.0,17.0,65,0.00,,,0.34,,2013-05-07 18:21:00,
2013-05-07 14:32:00,69.0,56.0,29.92,South,188,10.0,17.0,64,0.00,,,0.34,,2013-05-07 18:32:00,
2013-05-07 14:42:00,69.0,56.0,29.92,South,188,10.0,17.0,64,0.00,,,0.34,,2013-05-07 18:42:00,
2013-05-07 14:51:00,68.0,56.0,29.93,SSW,205,15.0,18.0,65,0.00,,,0.34,,2013-05-07 18:51:00,
2013-05-07 15:02:00,68.0,57.0,29.94,SW,224,13.0,20.0,68,0.00,,,0.34,,2013-05-07 19:02:00,
2013-05-07 15:11:00,68.0,57.0,29.94,SW,224,13.0,20.0,68,0.00,,,0.34,,2013-05-07 19:11:00,
2013-05-07 15:21:00,67.0,56.0,29.93,SSW,207,12.0,16.0,67,0.00,,,0.23,,2013-05-07 19:21:00,
2013-05-07 15:32:00,66.0,56.0,29.93,SSW,207,13.0,17.0,69,0.00,,,0.23,,2013-05-07 19:32:00,
2013-05-07 15:42:00,66.0,56.0,29.93,SSW,207,13.0,17.0,69,0.00,,,0.23,,2013-05-07 19:42:00,
2013-05-07 15:52:00,66.0,57.0,29.95,SW,225,15.0,20.0,74,0.00,,,0.23,,2013-05-07 19:52:00,
2013-05-07 16:02:00,65.0,56.0,29.93,SSW,198,14.0,18.0,74,0.00,,,0.23,,2013-05-07 20:02:00,
2013-05-07 16:12:00,65.0,56.0,29.93,SSW,198,14.0,18.0,74,0.00,,,0.23,,2013-05-07 20:12:00,
2013-05-07 16:22:00,64.0,56.0,29.94,SSW,211,16.0,20.0,76,0.00,,,0.10,,2013-05-07 20:22:00,
2013-05-07 16:32:00,64.0,57.0,29.93,SSW,195,12.0,21.0,77,0.00,,,0.10,,2013-05-07 20:32:00,
2013-05-07 16:42:00,64.0,57.0,29.93,SSW,195,12.0,21.0,77,0.00,,,0.10,,2013-05-07 20:42:00,
2013-05-07 16:51:00,63.0,57.0,29.93,South,187,10.0,16.0,80,0.00,,,0.10,,2013-05-07 20:51:00,
2013-05-07 17:02:00,63.0,57.0,29.93,SSW,197,11.0,18.0,81,0.00,,,0.10,,2013-05-07 21:02:00,
2013-05-07 17:11:00,63.0,57.0,29.93,SSW,197,11.0,18.0,81,0.00,,,0.10,,2013-05-07 21:11:00,
2013-05-07 17:22:00,63.0,57.0,29.93,SSE,148,11.0,17.0,80,0.00,,,0.05,,2013-05-07 21:22:00,
2013-05-07 17:33:00,63.0,57.0,29.93,SSE,149,11.0,15.0,81,0.00,,,0.05,,2013-05-07 21:33:00,
2013-05-07 17:42:00,63.0,57.0,29.93,SSE,149,11.0,15.0,81,0.00,,,0.05,,2013-05-07 21:42:00,
2013-05-07 17:53:00,63.0,57.0,29.93,South,170,7.0,13.0,80,0.00,,,0.05,,2013-05-07 21:53:00,
2013-05-07 18:02:00,63.0,56.0,29.93,SSE,165,7.0,10.0,79,0.00,,,0.05,,2013-05-07 22:02:00,
2013-05-07 18:13:00,63.0,56.0,29.93,SSE,165,7.0,10.0,79,0.00,,,0.05,,2013-05-07 22:13:00,
2013-05-07 18:22:00,64.0,56.0,29.92,SSW,194,7.0,11.0,76,0.00,,,0.03,,2013-05-07 22:22:00,
2013-05-07 18:33:00,64.0,55.0,29.92,SW,215,8.0,12.0,73,0.00,,,0.03,,2013-05-07 22:33:00,
2013-05-07 18:42:00,64.0,55.0,29.92,SW,215,8.0,12.0,73,0.00,,,0.03,,2013-05-07 22:42:00,
2013-05-07 18:52:00,64.0,55.0,29.92,SW,226,7.0,11.0,72,0.00,,,0.03,,2013-05-07 22:52:00,
2013-05-07 19:02:00,64.0,55.0,29.92,SW,214,7.0,14.0,73,0.00,,,0.03,,2013-05-07 23:02:00,
2013-05-07 19:12:00,64.0,55.0,29.92,SW,214,7.0,14.0,73,0.00,,,0.03,,2013-05-07 23:12:00,
2013-05-07 19:21:00,64.0,57.0,29.93,SSW,208,11.0,14.0,77,0.00,,,0.03,,2013-05-07 23:21:00,
2013-05-07 19:32:00,64.0,56.0,29.93,SSW,200,12.0,15.0,75,0.00,,,0.03,,2013-05-07 23:32:00,
2013-05-07 19:42:00,64.0,56.0,29.93,SSW,200,12.0,15.0,75,0.00,,,0.03,,2013-05-07 23:42:00,
2013-05-07 19:52:00,63.0,56.0,29.93,SSW,197,11.0,14.0,78,0.00,,,0.03,,2013-05-07 23:52:00,
2013-05-07 20:02:00,63.0,56.0,29.93,SSW,198,8.0,13.0,79,0.00,,,0.03,,2013-05-08 00:02:00,
2013-05-07 20:12:00,63.0,56.0,29.93,SSW,198,8.0,13.0,79,0.00,,,0.03,,2013-05-08 00:12:00,
2013-05-07 20:22:00,63.0,57.0,29.94,SSW,195,9.0,12.0,80,0.00,,,0.03,,2013-05-08 00:22:00,
2013-05-07 20:32:00,63.0,57.0,29.95,SSW,200,10.0,13.0,82,0.00,,,0.03,,2013-05-08 00:32:00,
2013-05-07 20:42:00,63.0,57.0,29.95,SSW,200,10.0,13.0,82,0.00,,,0.03,,2013-05-08 00:42:00,
2013-05-07 20:51:00,62.0,57.0,29.96,SSW,203,9.0,12.0,83,0.00,,,0.03,,2013-05-08 00:51:00,
2013-05-07 21:02:00,62.0,57.0,29.96,SSW,194,9.0,13.0,84,0.00,,,0.03,,2013-05-08 01:02:00,
2013-05-07 21:11:00,62.0,57.0,29.96,SSW,194,9.0,13.0,84,0.00,,,0.03,,2013-05-08 01:11:00,
2013-05-07 21:22:00,62.0,57.0,29.96,SSW,195,10.0,13.0,84,0.00,,,0.03,,2013-05-08 01:22:00,
2013-05-07 21:32:00,62.0,57.0,29.96,SW,221,9.0,13.0,85,0.00,,,0.03,,2013-05-08 01:32:00,
2013-05-07 21:42:00,62.0,57.0,29.96,SW,221,9.0,13.0,85,0.00,,,0.03,,2013-05-08 01:42:00,
2013-05-07 21:52:00,62.0,58.0,29.96,South,170,8.0,11.0,86,0.00,,,0.03,,2013-05-08 01:52:00,
2013-05-07 22:02:00,62.0,58.0,29.97,South,190,6.0,10.0,86,0.00,,,0.03,,2013-05-08 02:02:00,
2013-05-07 22:12:00,62.0,58.0,29.97,South,190,6.0,10.0,86,0.00,,,0.03,,2013-05-08 02:12:00,
2013-05-07 22:22:00,62.0,58.0,29.97,SSE,156,6.0,9.0,87,0.00,,,0.03,,2013-05-08 02:22:00,
2013-05-07 22:32:00,62.0,58.0,29.98,SSE,165,6.0,9.0,86,0.00,,,0.03,,2013-05-08 02:32:00,
2013-05-07 22:42:00,62.0,58.0,29.98,SSE,165,6.0,9.0,86,0.00,,,0.03,,2013-05-08 02:42:00,
2013-05-07 22:52:00,62.0,58.0,29.98,SSW,203,6.0,9.0,86,0.00,,,0.03,,2013-05-08 02:52:00,
2013-05-07 23:02:00,62.0,58.0,29.98,SSW,198,7.0,10.0,86,0.00,,,0.03,,2013-05-08 03:02:00,
2013-05-07 23:11:00,62.0,58.0,29.98,SSW,198,7.0,10.0,86,0.00,,,0.03,,2013-05-08 03:11:00,
2013-05-07 23:22:00,62.0,57.0,29.98,SSW,207,5.0,8.0,85,0.00,,,0.03,,2013-05-08 03:22:00,
2013-05-07 23:33:00,62.0,57.0,29.98,WSW,240,6.0,9.0,83,0.00,,,0.03,,2013-05-08 03:33:00,
2013-05-07 23:43:00,62.0,57.0,29.98,WSW,240,6.0,9.0,83,0.00,,,0.03,,2013-05-08 03:43:00,
2013-05-07 23:52:00,62.0,57.0,29.98,SW,224,6.0,8.0,84,0.00,,,0.03,,2013-05-08 03:52:00,